Weather History for Latrobe, PA

Change the Weather History Date:

Saturday, October 6, 2012

  Actual Average Record
Temperature  
Mean Temperature 50 °F -  
Max Temperature 55 °F 65 °F 84 °F (2007)
Min Temperature 42 °F 43 °F 32 °F (2003)
Degree Days  
Heating Degree Days 14    
Moisture  
Dew Point 44 °F    
Average Humidity 83    
Maximum Humidity 100    
Minimum Humidity 47    
Precipitation  
Precipitation 0.00 in - - ()
Sea Level Pressure  
Sea Level Pressure 29.98 in    
Wind  
Wind Speed 6 mph (West)    
Max Wind Speed 18 mph    
Max Gust Speed 18 mph    
Visibility 11 miles    
Events Rain    
Averages and records for this station are not official NWS values.
T = Trace of Precipitation, MM = Missing Value Source: NWS Daily Summary

Daily Weather History Graph

Daily Weather History Graph

Search for Another Location

Airport:

Trip Planner

Search our weather history database for the weather conditions in past years. The results will help you decide how hot, cold, wet, or windy it might be!

Date:

Astronomy

Oct. 06, 2012 Rise Set
Actual Time 7:19 AM EDT 6:50 PM EDT
Civil Twilight 6:52 AM EDT 7:18 PM EDT
Nautical Twilight 6:20 AM EDT 7:49 PM EDT
Astronomical Twilight 5:49 AM EDT 8:21 PM EDT
Moon 11:04 PM EDT (10/6) 1:13 PM EDT (10/6)
Length of Visible Light 12h 25m
Length of Day
11h 31m
Waning Gibbous, 65% of the Moon is Illuminated
Oct 6
Waning Gibbous
Oct 8
Last Quarter
Oct 15
New
Oct 21
First Quarter
Oct 29
Full

Hourly Weather History & Observations

Time (EDT) Temp. Windchill Dew Point Humidity Pressure Visibility Wind Dir Wind Speed Gust Speed Precip Events Conditions
6:00 AM 51.8 °F - 51.8 °F 100% 29.90 in 4.0 mi Calm Calm - N/A Rain Light Rain
6:47 AM 51.8 °F - 51.8 °F 100% 29.90 in 10.0 mi Calm Calm - N/A   Overcast
7:07 AM 51.8 °F - 51.8 °F 100% 29.91 in 10.0 mi West 3.5 mph - N/A   Overcast
7:47 AM 48.2 °F - 48.2 °F 100% 29.93 in 10.0 mi WNW 6.9 mph 16.1 mph N/A Rain Light Rain
8:20 AM 48.2 °F - 48.2 °F 100% 29.94 in 2.0 mi WNW 6.9 mph - N/A Rain Light Rain
8:45 AM 48.2 °F - 48.2 °F 100% 29.96 in 1.5 mi WNW 4.6 mph - N/A   Light Drizzle
8:55 AM 48.2 °F - 48.2 °F 100% 29.96 in 0.8 mi WNW 4.6 mph - N/A Rain Light Rain
9:10 AM 46.4 °F 43.5 °F 46.4 °F 100% 29.97 in 1.0 mi West 5.8 mph - N/A Rain Light Rain
10:14 AM 46.4 °F 43.5 °F 46.4 °F 100% 30.00 in 10.0 mi West 5.8 mph - N/A   Overcast
10:47 AM 48.2 °F - 46.4 °F 93% 30.00 in 10.0 mi West 6.9 mph - N/A   Overcast
11:47 AM 48.2 °F - 46.4 °F 93% 30.01 in 10.0 mi West 6.9 mph - N/A   Overcast
12:50 PM 51.8 °F - 46.4 °F 82% 30.02 in 10.0 mi WSW 17.3 mph - N/A   Mostly Cloudy
1:50 PM 53.6 °F - 42.8 °F 67% 30.01 in 10.0 mi WSW 18.4 mph - N/A   Mostly Cloudy
2:50 PM 53.6 °F - 39.2 °F 58% 30.00 in 10.0 mi WSW 16.1 mph - N/A   Scattered Clouds
3:50 PM 55.4 °F - 37.4 °F 51% 30.00 in 15.0 mi West 17.3 mph - N/A   Scattered Clouds
4:50 PM 55.4 °F - 37.4 °F 51% 29.99 in 20.0 mi West 9.2 mph 18.4 mph N/A   Scattered Clouds
5:50 PM 55.4 °F - 35.6 °F 47% 29.99 in 20.0 mi West 11.5 mph - N/A   Scattered Clouds
6:50 PM 51.8 °F - 37.4 °F 58% 30.02 in 20.0 mi West 9.2 mph - N/A   Scattered Clouds
7:50 PM 48.2 °F - 39.2 °F 71% 30.04 in 20.0 mi West 6.9 mph - N/A   Scattered Clouds
8:50 PM 46.4 °F - 39.2 °F 76% 30.06 in 15.0 mi Calm Calm - N/A   Scattered Clouds
9:50 PM 42.8 °F - 41.0 °F 93% 30.07 in 15.0 mi Calm Calm - N/A   Scattered Clouds